Flag for Germany Weather past 2 weeks in Gorleben, Lower Saxony, Germany

Now
69 °F

Sunny.


Feels Like: 69 °F
Forecast: 56 / 74 °F
Wind: 3 mph from Northeast

Location: Marnitz

Current Time: Sep 16, 2014 at 8:02:43 PM

Latest Report: Sep 16, 2014 at 7:00 PM


Visibility: 13 mi

Pressure: 30.07 "Hg

Humidity: 70%

Dew point: 58 °F

Location of GorlebenLocation

Historic Weather in Gorleben — Graph

°F

Gorleben temperature yesterday

Maximum temperature yesterday: 76 °F (at 3:00 PM)
Minimum temperature yesterday: 57 °F (at 7:00 AM)
Average temperature yesterday: 65 °F

Past Weeks' High & Low Weather Summary

 TemperatureHumidityPressure
High80 °F (Sep 6, 3:00 PM)98% (Sep 5, 8:00 AM)30.33 "Hg (Sep 5, 8:00 AM)
Low47 °F (Sep 3, 4:00 AM)43% (Sep 6, 4:00 PM)29.85 "Hg (Sep 6, 5:00 PM)
Average62 °F82%30.08 "Hg
* Reported Sep 1 7:00 PM — Sep 16 7:00 PM, Gorleben, Weather by CustomWeather, © 2014

Note: Actual official high and low records may vary slightly from our data, if they occured in-between our weather recording intervals... More about our weather records

Advertising

Gorleben weather history for previous 24 hours

 ConditionsComfort  
Time TempWeatherWind HumidityBarometerVisibility
7:00 PM
Sep 16
69 °FSunny.3 mph70%30.07 "Hg12 mi
6:00 PM72 °FOvercast.3 mph61%30.06 "Hg12 mi
5:00 PM74 °FScattered clouds.5 mph58%30.06 "Hg12 mi
4:00 PM75 °FPassing clouds.5 mph52%30.07 "Hg14 mi
3:00 PM74 °FScattered clouds.6 mph59%30.08 "Hg14 mi
2:00 PM74 °FPartly sunny.5 mph63%30.09 "Hg12 mi
1:00 PM71 °FScattered clouds.5 mph65%30.10 "Hg9 mi
12:00 PM69 °FOvercast.3 mph70%30.11 "Hg8 mi
11:00 AM67 °FSunny.3 mph72%30.12 "Hg9 mi
10:00 AM64 °FSunny.3 mph78%30.12 "Hg8 mi
9:00 AM60 °FPassing clouds.3 mph88%30.11 "Hg7 mi
8:00 AM56 °FSunny.3 mph98%30.11 "Hg5 mi
7:00 AM53 °FFog.2 mph97%30.11 "Hg4 mi
6:00 AM52 °FPassing clouds.1 mph97%30.11 "Hg1 mi
5:00 AM52 °FFog.1 mph97%30.11 "Hg2 mi
4:00 AM53 °FClear.1 mph97%30.11 "Hg1 mi
3:00 AM54 °FFog.1 mph96%30.12 "Hg2 mi
2:00 AM55 °FFog.1 mph96%30.12 "Hg2 mi
1:00 AM57 °FFog.1 mph96%30.12 "Hg3 mi
12:00 AM58 °FFog.1 mph94%30.12 "Hg3 mi
11:00 PM
Sep 15
61 °FFog.2 mph93%30.12 "Hg4 mi
10:00 PM62 °FPassing clouds.2 mph90%30.12 "Hg6 mi
9:00 PM63 °FPassing clouds.2 mph83%30.11 "Hg7 mi
8:00 PM67 °FPassing clouds.2 mph71%30.10 "Hg10 mi
Weather by CustomWeather, © 2014

See weather overviewHow to use our weather pages